Lewistown, MT

5:08 PM MDT on March 26, 2017 (GMT -0600)
Lewistown Municipal

Weather History for KLWT - June, 2011

Change the Weather History Date:

Monday, June 6, 2011

  Actual Average Record
Temperature  
Mean Temperature 63 °F 56 °F  
Max Temperature 74 °F 68 °F 86 °F (1977)
Min Temperature 52 °F 43 °F 29 °F (1901)
Degree Days  
Heating Degree Days 2 10  
Month to date heating degree days 55 62  
Since 1 June heating degree days 55 62  
Since 1 July heating degree days 8791 8036  
Cooling Degree Days 0 0  
Month to date cooling degree days 0 0  
Year to date cooling degree days 0 2  
Since 1 June cooling degree days 0 0  
Growing Degree Days 13 (Base 50)    
Moisture  
Dew Point 50 °F    
Average Humidity 71    
Maximum Humidity 100    
Minimum Humidity 42    
Precipitation  
Precipitation 0.66 in 0.12 in 3.10 in (1906)
Month to date precipitation 1.71 0.72  
Year to date precipitation 14.09 6.98  
Snow  
Snow 0.00 in - - ()
Snow Depth 0.00 in    
Sea Level Pressure  
Sea Level Pressure 29.72 in    
Wind  
Wind Speed 15 mph (East)    
Max Wind Speed 29 mph    
Max Gust Speed 37 mph    
Visibility 9 miles    
Events Rain , Thunderstorm    
T = Trace of Precipitation, MM = Missing Value Source: NWS Daily Summary

Daily Weather History Graph

Daily Weather History Graph

Search for Another Location

Airport or City:

Trip Planner

Search our weather history database for the weather conditions in past years. The results will help you decide how hot, cold, wet, or windy it might be!

Date:

Astronomy

Jun. 06, 2011 Rise Set
Actual Time 5:24 AM MDT 9:09 PM MDT
Civil Twilight 4:44 AM MDT 9:48 PM MDT
Nautical Twilight 3:51 AM MDT 10:41 PM MDT
Astronomical Twilight 2:36 AM MDT 11:57 PM MDT
Moon 10:27 AM MDT (6/6) 12:04 AM MDT (6/6)
Length of Visible Light 17h 03m
Length of Day
15h 45m
Waxing Crescent, 25% of the Moon is Illuminated
Jun 6
Waxing Crescent
Jun 8
First Quarter
Jun 15
Full
Jun 23
Last Quarter
Jul 1
New

Hourly Weather History & Observations

Time (MDT) Temp. Dew Point Humidity Pressure Visibility Wind Dir Wind Speed Gust Speed Precip Events Conditions
12:54 AM 53.1 °F 46.0 °F 77% 29.84 in 10.0 mi ESE 6.9 mph - N/A   Clear
1:54 AM 55.0 °F 46.9 °F 74% 29.82 in 10.0 mi East 9.2 mph - N/A   Clear
2:54 AM 54.0 °F 46.9 °F 77% 29.82 in 10.0 mi ESE 4.6 mph - N/A   Clear
3:54 AM 54.0 °F 46.9 °F 77% 29.81 in 10.0 mi ESE 8.1 mph - N/A   Clear
4:54 AM 55.0 °F 46.9 °F 74% 29.79 in 10.0 mi ESE 9.2 mph - N/A   Clear
5:54 AM 54.0 °F 46.0 °F 75% 29.81 in 10.0 mi ESE 6.9 mph - N/A   Clear
6:54 AM 57.0 °F 48.0 °F 72% 29.82 in 10.0 mi East 9.2 mph - N/A   Clear
7:54 AM 60.1 °F 46.0 °F 60% 29.83 in 10.0 mi East 11.5 mph 17.3 mph N/A   Clear
8:54 AM 63.0 °F 45.0 °F 52% 29.83 in 10.0 mi East 12.7 mph - N/A   Clear
9:54 AM 66.0 °F 45.0 °F 47% 29.81 in 10.0 mi ESE 16.1 mph - N/A   Clear
10:54 AM 68.0 °F 45.0 °F 43% 29.78 in 10.0 mi East 23.0 mph 28.8 mph N/A   Clear
11:54 AM 69.1 °F 46.9 °F 45% 29.77 in 10.0 mi East 20.7 mph 29.9 mph N/A   Clear
12:54 PM 70.0 °F 48.9 °F 47% 29.75 in 10.0 mi East 17.3 mph 26.5 mph N/A   Clear
1:54 PM 71.1 °F 48.9 °F 45% 29.73 in 10.0 mi East 18.4 mph 28.8 mph N/A   Clear
2:54 PM 72.0 °F 48.9 °F 44% 29.69 in 10.0 mi East 21.9 mph 29.9 mph N/A   Clear
3:54 PM 73.0 °F 51.1 °F 46% 29.66 in 10.0 mi East 21.9 mph 29.9 mph N/A   Clear
4:54 PM 73.0 °F 51.1 °F 46% 29.62 in 10.0 mi East 24.2 mph 34.5 mph N/A   Clear
5:54 PM 72.0 °F 51.1 °F 48% 29.58 in 10.0 mi East 25.3 mph 35.7 mph N/A   Clear
6:54 PM 71.1 °F 51.1 °F 49% 29.60 in 10.0 mi ENE 16.1 mph 25.3 mph N/A   Mostly Cloudy
7:54 PM 68.0 °F 51.1 °F 55% 29.57 in 10.0 mi East 13.8 mph 23.0 mph N/A   Mostly Cloudy
8:42 PM 66.2 °F 51.8 °F 60% 29.67 in 10.0 mi ENE 11.5 mph 20.7 mph N/A Thunderstorm Overcast
8:54 PM 66.0 °F 51.1 °F 59% 29.57 in 10.0 mi ENE 12.7 mph 26.5 mph N/A Thunderstorm Overcast
9:46 PM 57.2 °F 55.4 °F 94% 29.72 in 2.5 mi East 11.5 mph 20.7 mph 0.24 in Rain , Thunderstorm Heavy Thunderstorms and Rain
9:54 PM 57.0 °F 54.0 °F 89% 29.61 in 2.0 mi NE 17.3 mph 25.3 mph 0.33 in Rain , Thunderstorm Heavy Thunderstorms and Rain
9:58 PM 57.2 °F 53.6 °F 88% 29.70 in 4.0 mi ESE 10.4 mph 25.3 mph 0.01 in Rain , Thunderstorm Thunderstorms and Rain
10:32 PM 53.6 °F 51.8 °F 94% 29.73 in 6.0 mi West 19.6 mph - 0.10 in Rain Rain
10:39 PM 53.6 °F 51.8 °F 94% 29.72 in 4.0 mi West 16.1 mph 24.2 mph 0.14 in Rain Heavy Rain
10:54 PM 53.1 °F 52.0 °F 96% 29.66 in 4.0 mi West 17.3 mph - 0.22 in Rain Rain
11:32 PM 53.6 °F 53.6 °F 100% 29.68 in 8.0 mi NW 12.7 mph 17.3 mph 0.10 in Rain Light Rain
11:51 PM 53.6 °F 53.6 °F 100% 29.65 in 10.0 mi NW 10.4 mph 23.0 mph 0.11 in Rain Light Rain
11:54 PM 53.1 °F 53.1 °F 100% 29.59 in 10.0 mi Variable 6.9 mph 16.1 mph 0.11 in Rain Light Rain